Погода в Якутске

Погода в Якутске : погода сейчас, прогноз погоды и архив. Всё, что Вы хотите узнать о погоде в Якутске!

Хотите узнать прогноз погоды в Якутске? Тогда Вам сюда: Погода в Якутске

Поиск расширенной информации на нашем сайте:

Другие новости

Новости СМИ2

Главная страница сайта

Новости сайта

03.07.2017

Напоминаем, что на нашем специализированном сайте Метеоцентр.Азия вы можете получить высокодетализированные автоматические прогнозы погоды по пунктам России, СНГ и мира в авиационном формате (включающие направление и скорость ветра, видимость, явления погоды, количество и форму облачности, нижнюю и верхнюю границу облачности).


Погода в Якутске - сегодня

Время (UTC), дата Ветер
(°,м/с) 
Видим.   Явления Облачность Т
(°С)
Тd
(°С)
f(%) Тe
(°С)
Pmin
(гПа)
dP
(гПа)
Po
(мм)
O2
(г/м3)
Тmin Tmax R s Состояние
почвы
00 14.02.18 270 (З) 20000 м  {снег}  10/0 верхняя 
[Cs]
-34.8 -37.2 79 -36  1011.2  0.6  748  347  -35.5    0.0  26  равномерный
сухой снег
100% 
03 14.02.18 200 (Ю) 20000 м  слаб. снег  10/3 600 м средняя, верхняя 
[Sc|Ac trans|Ci fib]
-25.8 -28.3 79 -26  1010.5  -0.2  747  334           
06 14.02.18 170 (Ю) 20000 м  слаб. снег  10/3 600 м средняя, верхняя 
[Sc|Ac trans|Ci fib]
-23.5 -26.6 76 -24  1010.9  0.6  748  331           
09 14.02.18 270 (З) 20000 м  слаб. снег  10/0 средняя, верхняя 
[Ac trans|Ci fib]
-23.9 -26.4 80 -24  1011.9  0.9  749  332           
15 14.02.18 тихо ()   20000 м  слаб. снег  10/0 средняя, верхняя 
[Ac trans|Ci fib]
-30.5 -32.8 80 -31  1013.7  0.9  750  342           
18 14.02.18 280 (З) 20000 м  слаб. снег  10/0 средняя, верхняя 
[Ac trans|Ci fib]
-27.8 -30.2 80 -28  1014.1  0.5  750  338           
21 14.02.18 280 (З) 20000 м  {снег}  10/0 средняя, верхняя 
[Ac trans|Ci fib]
-29 -31.5 79 -30  1014.3  0.2  750  340           
03 15.02.18 300 (СЗ) 20000 м    10/0 средняя, верхняя 
[Ac trans|Ci fib]
-23.7 -26.9 75 -27  1015.3  751  333           
06 15.02.18 300 (СЗ) 20000 м    10/0 средняя, верхняя 
[Ac trans|Ci fib]
-22.8 -26.3 73 -27  1016.5  1.2  752  332           
09 15.02.18 180 (Ю) 20000 м    10/0 средняя, верхняя 
[Ac trans|Ci fib]
-25.5 -27.8 81 -26  1018.2  1.6  753  337           
15 15.02.18 220 (ЮЗ) 20000 м    10/0 верхняя 
[Ci fib]
-27.8 -29.9 82 -28  1019.1  0.4  754  340           
18 15.02.18 тихо ()   20000 м  слаб. снег  10/0 верхняя 
[Ci fib]
-30.7 -32.9 81 -31  1019.6  0.3  754  344           
21 15.02.18 260 (З) 20000 м  {снег}  10/0 средняя, верхняя 
[Ac trans|Ci fib]
-30.8 -33 81 -35  1019.5  -0.1  754  344           
00 16.02.18 210 (ЮЗ) 20000 м  {снег}  10/0 средняя, верхняя 
[Ac trans|Ci fib]
-27.4 -29.7 81 -28  1019.8  0.5  754  340  -30.8    0.0  26  равномерный
сухой снег
100% 
03 16.02.18 320 (СЗ) 20000 м    10/0 средняя, верхняя 
[Ac trans|Ci fib]
-22.3 -25.2 77 -25  1019.6  0.1  754  333           
06 16.02.18 320 (СЗ) 20000 м    10/0 средняя, верхняя 
[Ac trans|Ci fib]
-19.6 -22.8 76 -20  1019  -0.4  754  329           
09 16.02.18 290 (З) 20000 м    8/0 верхняя 
[Ci fib]
-22.9 -25.2 81 -23  1020.3  1.1  755  334           
15 16.02.18 170 (Ю) 20000 м    8/0 верхняя 
[Ci fib]
-28.9 -30.9 83 -30  1021.4  0.2  755  342           
18 16.02.18 200 (Ю) 20000 м    8/0 верхняя 
[Ci fib]
-30.9 -33 82 -32  1021.4  -0.1  755  345           
21 16.02.18 200 (Ю) 20000 м  слаб. снег  10/0 средняя, верхняя 
[Ac trans|Ci fib]
-29.8 -32 81 -31  1021.1  -0.2  755  343           
03 17.02.18 тихо ()   20000 м  слаб. снег  10/0 средняя, верхняя 
[Ac trans|Ci fib]
-22 -25 77 -22  1021.2  755  333           
06 17.02.18 150 (ЮВ) 20000 м  слаб. снег  10/0 средняя, верхняя 
[Ac trans|Cs]
-22 -24.9 77 -22  1020.9  -0.3  755  333           
09 17.02.18 200 (Ю) 20000 м  слаб. снег  10/0 средняя, верхняя 
[Ac trans|Cs]
-24.5 -26.7 82 -25  1021.4  0.4  756  336           
15 17.02.18 010 (С) 20000 м  слаб. снег  10/0 средняя, верхняя 
[Ac trans|Cs]
-31.2 -33.4 81 -32  1021.9  756  346           
18 17.02.18 280 (З) 20000 м  слаб. снег  10/0 верхняя 
[Cs]
-30.5 -32.8 80 -31  1022  0.1  756  345           
Время (UTC), дата Ветер
(°,м/с) 
Видим.   Явления Облачность Т
(°С)
Тd
(°С)
f(%) Тe
(°С)
Pmin
(гПа)
dP
(гПа)
Po
(мм)
O2
(г/м3)
Тmin Tmax R s Состояние
почвы

Для получения пояснительной информации подведите курсор к названию столбца.

ПОГОДА в Якутске - архив

Всё, что Вы хотите узнать о погоде в Якутске - удобно и подробно!

Выберите нужную дату (начиная с 1 января 2015* года) и нажмите кнопку "Найти".
Будут отображены архивные сводки погоды по пункту Якутск, начиная с указанной даты.


Отображать данные в формате CSV (для использования в таблицах Excel)


Внимание! Наш архив погоды предназначен исключительно для личного некоммерческого использования в познавательных целях. Если Вам необходимы официальные справки о состоянии погоды (для производственных, юридических, коммерческих и т.п. целей), обращайтесь в органы Росгидромета.

*Примечание: данная дата относится к архиву по метеостанциям СССР (Россия, СНГ, Балтия).
Архив по метеостанциям Зарубежной Европы и Азии (кроме Китая) хранится 10 дней, по другим регионам земного шара (Китай, Африка, Америка, Австралия, Океания) - 1 день.

Якутск - район местоположения метеостанции


Название, широта, долгота, высота метеостанции:
Якутск 62°ш. 129.7°д. 101 м над ур. моря [Российская Федерация]

Дополнительная информация

В oтличие oт бoльшинства пoгoдных сайтoв мы публикуем пoдрoбную метеoинфoрмацию в детальнoм прoфессиoнальнoм фoрмате.

Характеристики температуры и влажнoсти вoздуха измеряются на высoте 2 м в тени вдали oт зданий и деревьев.
Скoрoсть ветра измеряется на высoте 10 м (на урoвне рoста челoвека скoрoсть ветра ниже в 1.5-2 раза). Если метеoстанция нахoдится в гoрoде или в лесу, тo скoрoсть ветра занижена на 2-4 м/с пo сравнению с oткрытым местoм. Скoрoсть ветра над акватoриями крупных рек и oзёр, а также на вершинах хoлмoв на 2-5 м/с выше, чем в oбычных услoвиях.
Атмoсфернoе давление в разных тoчках местнoсти мoжет значительнo oтличаться oт давления на метеoстанции, в зависимoсти oт услoвий рельефа (при пoдъёме на 10 м давление пoнижается примернo на 1 мм рт.ст.).